KLM1848 EDDM-EHAM

Flight info

Callsign KLM1848
Flight time 1h 5m
Altitude 32000
Route GIVMI1N/26R GIVMI Y101 IBAGA DCT MASEK DCT MAPOX DCT NORKU
Aircraft B738/M-SDE2E3FGHIRWXY/LB1

Departure

Time 2026-05-05 20:52
Airport Munich Airport (EDDM)

Arrival

Time 2026-05-05 21:58
Airport Amsterdam Airport Schiphol (EHAM)
Time Latitude Longitude Altitude Speed Heading
2026-05-05 20:18 48.35470 11.79748 1495 ft 0 kts 83°
2026-05-05 20:43 48.35468 11.79727 1495 ft 5 kts 82°
2026-05-05 20:43 48.35459 11.79681 1495 ft 5 kts 68°
2026-05-05 20:44 48.35448 11.79651 1495 ft 5 kts 58°
2026-05-05 20:44 48.35430 11.79618 1495 ft 2 kts 32°
2026-05-05 20:44 48.35405 11.79601 1495 ft 1 kts
2026-05-05 20:44 48.35398 11.79600 1495 ft 0 kts 353°
2026-05-05 20:45 48.35474 11.79587 1495 ft 13 kts 353°
2026-05-05 20:45 48.35549 11.79574 1495 ft 10 kts 352°
2026-05-05 20:45 48.35639 11.79555 1495 ft 16 kts 353°
2026-05-05 20:46 48.35751 11.79538 1495 ft 14 kts 353°
2026-05-05 20:46 48.35832 11.79523 1495 ft 10 kts 353°
2026-05-05 20:46 48.35925 11.79512 1495 ft 16 kts 350°
2026-05-05 20:46 48.36027 11.79488 1495 ft 13 kts 352°
2026-05-05 20:47 48.36094 11.79529 1495 ft 11 kts 63°
2026-05-05 20:47 48.36118 11.79689 1495 ft 20 kts 84°
2026-05-05 20:47 48.36137 11.79929 1495 ft 24 kts 83°
2026-05-05 20:47 48.36156 11.80153 1495 ft 19 kts 83°
2026-05-05 20:48 48.36177 11.80410 1495 ft 29 kts 83°
2026-05-05 20:48 48.36198 11.80684 1495 ft 24 kts 83°
2026-05-05 20:48 48.36220 11.80940 1495 ft 26 kts 82°
2026-05-05 20:48 48.36239 11.81196 1495 ft 22 kts 82°
2026-05-05 20:49 48.36255 11.81404 1495 ft 20 kts 84°
2026-05-05 20:49 48.36273 11.81659 1495 ft 25 kts 83°
2026-05-05 20:49 48.36294 11.81881 1495 ft 16 kts 66°
2026-05-05 20:49 48.36346 11.81971 1495 ft 7 kts 41°
2026-05-05 20:50 48.36366 11.81997 1495 ft 1 kts 41°
2026-05-05 20:50 48.36378 11.82013 1495 ft 8 kts 41°
2026-05-05 20:50 48.36401 11.82118 1495 ft 9 kts 89°
2026-05-05 20:50 48.36446 11.82160 1495 ft 11 kts 335°
2026-05-05 20:51 48.36528 11.82127 1495 ft 7 kts 353°
2026-05-05 20:51 48.36572 11.82117 1495 ft 10 kts 343°
2026-05-05 20:51 48.36660 11.82013 1495 ft 18 kts 289°
2026-05-05 20:51 48.36662 11.81836 1495 ft 22 kts 263°
2026-05-05 20:52 48.36629 11.81395 1495 ft 78 kts 264°
2026-05-05 20:52 48.36533 11.80184 1496 ft 150 kts 264°
2026-05-05 20:52 48.36404 11.78464 1955 ft 175 kts 264°
2026-05-05 20:52 48.36274 11.76684 3081 ft 169 kts 265°
2026-05-05 20:53 48.36143 11.74789 3584 ft 193 kts 265°
2026-05-05 20:53 48.36006 11.72629 3892 ft 224 kts 266°
2026-05-05 20:53 48.35826 11.70208 4481 ft 237 kts 261°
2026-05-05 20:53 48.35349 11.67736 5162 ft 257 kts 251°
2026-05-05 20:54 48.34586 11.65381 6251 ft 253 kts 246°
2026-05-05 20:54 48.34084 11.62892 7227 ft 247 kts 269°
2026-05-05 20:54 48.34346 11.60393 8227 ft 243 kts 293°
2026-05-05 20:54 48.35236 11.58204 9095 ft 248 kts 309°
2026-05-05 20:55 48.36381 11.56141 9707 ft 263 kts 312°
2026-05-05 20:55 48.37565 11.54005 10501 ft 270 kts 312°
2026-05-05 20:55 48.38741 11.51775 11348 ft 275 kts 310°
2026-05-05 20:55 48.39896 11.49474 12259 ft 276 kts 308°
2026-05-05 20:56 48.41048 11.47168 13168 ft 278 kts 306°
2026-05-05 20:56 48.42475 11.45128 13899 ft 288 kts 325°
2026-05-05 20:56 48.44313 11.43903 14683 ft 296 kts 339°
2026-05-05 20:56 48.46364 11.43095 15111 ft 315 kts 344°
2026-05-05 20:57 48.48581 11.42414 15369 ft 337 kts 346°
2026-05-05 20:57 48.51003 11.41752 15560 ft 360 kts 346°
2026-05-05 20:57 48.53528 11.41063 15736 ft 381 kts 346°
2026-05-05 20:57 48.56127 11.40351 16386 ft 385 kts 346°
2026-05-05 20:58 48.58788 11.39620 17255 ft 385 kts 346°
2026-05-05 20:58 48.61419 11.38896 17989 ft 387 kts 346°
2026-05-05 20:58 48.64083 11.38161 18718 ft 389 kts 346°
2026-05-05 20:58 48.66751 11.37410 19419 ft 391 kts 345°
2026-05-05 20:59 48.69351 11.36259 20068 ft 392 kts 336°
2026-05-05 20:59 48.71847 11.34538 20375 ft 402 kts 329°
2026-05-05 20:59 48.74296 11.32355 20559 ft 416 kts 324°
2026-05-05 20:59 48.76714 11.29904 21155 ft 417 kts 322°
2026-05-05 21:00 48.79108 11.27420 21841 ft 418 kts 323°
2026-05-05 21:00 48.81528 11.24947 22428 ft 421 kts 323°
2026-05-05 21:00 48.84049 11.22708 23061 ft 423 kts 329°
2026-05-05 21:00 48.86739 11.20823 23672 ft 427 kts 335°
2026-05-05 21:01 48.89539 11.19278 24263 ft 429 kts 338°
2026-05-05 21:01 48.92365 11.17869 24894 ft 429 kts 338°
2026-05-05 21:01 48.95256 11.16423 25216 ft 437 kts 338°
2026-05-05 21:01 48.98187 11.14944 25252 ft 452 kts 339°
2026-05-05 21:02 49.01179 11.13423 25572 ft 457 kts 339°
2026-05-05 21:02 49.04202 11.11880 26147 ft 457 kts 339°
2026-05-05 21:02 49.07206 11.10343 26552 ft 461 kts 340°
2026-05-05 21:02 49.10248 11.08785 26773 ft 469 kts 340°
2026-05-05 21:03 49.13404 11.07199 27182 ft 472 kts 341°
2026-05-05 21:03 49.16497 11.05653 27598 ft 474 kts 341°
2026-05-05 21:03 49.19642 11.04074 27978 ft 477 kts 340°
2026-05-05 21:03 49.22790 11.02463 28356 ft 479 kts 340°
2026-05-05 21:04 49.25946 11.00841 28769 ft 480 kts 340°
2026-05-05 21:04 49.29105 10.99213 29458 ft 473 kts 338°
2026-05-05 21:04 49.32196 10.97617 30191 ft 467 kts 339°
2026-05-05 21:04 49.35278 10.95984 30377 ft 473 kts 337°
2026-05-05 21:05 49.38307 10.93983 30690 ft 474 kts 332°
2026-05-05 21:05 49.41183 10.91593 31223 ft 468 kts 326°
2026-05-05 21:05 49.43882 10.88828 31649 ft 467 kts 322°
2026-05-05 21:05 49.46525 10.85894 31810 ft 473 kts 323°
2026-05-05 21:06 49.51955 10.79961 31822 ft 476 kts 324°
2026-05-05 21:06 49.57380 10.74231 31823 ft 475 kts 324°
2026-05-05 21:07 49.62812 10.68441 31817 ft 475 kts 324°
2026-05-05 21:07 49.68226 10.62637 31819 ft 475 kts 324°
2026-05-05 21:08 49.73676 10.56783 31820 ft 475 kts 323°
2026-05-05 21:08 49.79210 10.51235 31817 ft 475 kts 327°
2026-05-05 21:09 49.84842 10.45920 31817 ft 475 kts 327°
2026-05-05 21:09 49.90477 10.40544 31817 ft 475 kts 327°
2026-05-05 21:10 49.96067 10.35171 31817 ft 475 kts 327°
2026-05-05 21:10 50.01686 10.29743 31817 ft 475 kts 327°
2026-05-05 21:11 50.07297 10.24345 31817 ft 475 kts 327°
2026-05-05 21:11 50.12894 10.18947 31817 ft 475 kts 327°
2026-05-05 21:12 50.18501 10.13509 31817 ft 475 kts 327°
2026-05-05 21:12 50.24114 10.08041 31817 ft 475 kts 327°
2026-05-05 21:13 50.29710 10.02571 31816 ft 475 kts 327°
2026-05-05 21:13 50.35271 9.97118 31817 ft 476 kts 327°
2026-05-05 21:14 50.40884 9.91597 31817 ft 475 kts 327°
2026-05-05 21:14 50.46471 9.86096 31817 ft 475 kts 327°
2026-05-05 21:15 50.52094 9.80564 31821 ft 476 kts 327°
2026-05-05 21:15 50.57700 9.74998 31821 ft 476 kts 327°
2026-05-05 21:16 50.63278 9.69433 31820 ft 476 kts 327°
2026-05-05 21:16 50.68860 9.63843 31831 ft 477 kts 324°
2026-05-05 21:17 50.74010 9.57374 31836 ft 471 kts 313°
2026-05-05 21:17 50.78347 9.49609 31835 ft 468 kts 305°
2026-05-05 21:18 50.82414 9.41659 31836 ft 468 kts 305°
2026-05-05 21:18 50.86516 9.33681 31842 ft 465 kts 305°
2026-05-05 21:19 50.90608 9.25732 31841 ft 465 kts 305°
2026-05-05 21:19 50.94721 9.17822 31840 ft 466 kts 306°
2026-05-05 21:20 50.98843 9.09914 31845 ft 463 kts 305°
2026-05-05 21:20 51.02895 9.02028 31848 ft 462 kts 304°
2026-05-05 21:21 51.06970 8.94045 31849 ft 462 kts 304°
2026-05-05 21:21 51.11014 8.86099 31851 ft 463 kts 304°
2026-05-05 21:22 51.15142 8.78326 31858 ft 462 kts 309°
2026-05-05 21:22 51.19639 8.70992 31862 ft 462 kts 310°
2026-05-05 21:23 51.24107 8.63682 31858 ft 459 kts 310°
2026-05-05 21:23 51.28568 8.56321 31856 ft 460 kts 310°
2026-05-05 21:24 51.32968 8.49016 31862 ft 461 kts 310°
2026-05-05 21:24 51.37410 8.41613 31843 ft 456 kts 310°
2026-05-05 21:25 51.41814 8.34353 31828 ft 455 kts 310°
2026-05-05 21:25 51.46194 8.27080 31830 ft 456 kts 310°
2026-05-05 21:26 51.50574 8.19763 31832 ft 455 kts 310°
2026-05-05 21:26 51.54936 8.12443 31826 ft 453 kts 310°
2026-05-05 21:27 51.59289 8.05112 31824 ft 453 kts 310°
2026-05-05 21:27 51.63043 7.98769 31823 ft 453 kts 310°
2026-05-05 21:28 51.67388 7.91405 31824 ft 454 kts 310°
2026-05-05 21:28 51.71730 7.84023 31825 ft 455 kts 310°
2026-05-05 21:29 51.76081 7.76604 31463 ft 445 kts 310°
2026-05-05 21:29 51.78188 7.73002 31039 ft 440 kts 310°
2026-05-05 21:29 51.80242 7.69486 30565 ft 436 kts 310°
2026-05-05 21:30 51.82314 7.65934 30087 ft 433 kts 310°
2026-05-05 21:30 51.84368 7.62409 29617 ft 429 kts 310°
2026-05-05 21:30 51.86424 7.58875 29145 ft 426 kts 310°
2026-05-05 21:30 51.88433 7.55415 28693 ft 422 kts 309°
2026-05-05 21:31 51.90449 7.51940 28236 ft 419 kts 309°
2026-05-05 21:31 51.92413 7.48548 27788 ft 415 kts 309°
2026-05-05 21:31 51.94380 7.45148 27342 ft 411 kts 309°
2026-05-05 21:31 51.96343 7.41751 26890 ft 408 kts 309°
2026-05-05 21:32 51.98268 7.38412 26441 ft 405 kts 309°
2026-05-05 21:32 52.00179 7.35110 25993 ft 402 kts 310°
2026-05-05 21:32 52.02096 7.31817 25544 ft 399 kts 310°
2026-05-05 21:32 52.03977 7.28563 25102 ft 396 kts 309°
2026-05-05 21:33 52.05841 7.25320 24671 ft 393 kts 309°
2026-05-05 21:33 52.07703 7.22068 24232 ft 390 kts 309°
2026-05-05 21:33 52.09544 7.18843 23795 ft 387 kts 309°
2026-05-05 21:33 52.11361 7.15653 23363 ft 385 kts 309°
2026-05-05 21:34 52.13180 7.12452 22924 ft 382 kts 310°
2026-05-05 21:34 52.14370 7.10357 22636 ft 380 kts 310°
2026-05-05 21:34 52.16748 7.06166 22057 ft 377 kts 310°
2026-05-05 21:34 52.18522 7.03037 21620 ft 375 kts 310°
2026-05-05 21:35 52.19697 7.00966 21333 ft 374 kts 310°
2026-05-05 21:35 52.21452 6.97864 20958 ft 371 kts 310°
2026-05-05 21:35 52.23145 6.94690 20629 ft 367 kts 308°
2026-05-05 21:35 52.24763 6.91436 20326 ft 368 kts 307°
2026-05-05 21:36 52.26348 6.88200 20027 ft 370 kts 307°
2026-05-05 21:36 52.27977 6.84890 19722 ft 370 kts 307°
2026-05-05 21:36 52.29569 6.81672 19425 ft 368 kts 308°
2026-05-05 21:36 52.31193 6.78395 19124 ft 366 kts 308°
2026-05-05 21:37 52.32784 6.75181 18830 ft 364 kts 308°
2026-05-05 21:37 52.34362 6.72017 18540 ft 362 kts 309°
2026-05-05 21:37 52.35968 6.68803 18245 ft 360 kts 308°
2026-05-05 21:37 52.37548 6.65625 17951 ft 359 kts 308°
2026-05-05 21:38 52.39117 6.62456 17661 ft 357 kts 308°
2026-05-05 21:38 52.40668 6.59313 17378 ft 356 kts 308°
2026-05-05 21:38 52.42212 6.56178 17095 ft 354 kts 308°
2026-05-05 21:38 52.43753 6.53048 16815 ft 352 kts 309°
2026-05-05 21:39 52.45270 6.49879 16524 ft 351 kts 304°
2026-05-05 21:39 52.46382 6.46325 16244 ft 349 kts 290°
2026-05-05 21:39 52.46978 6.42512 15956 ft 348 kts 280°
2026-05-05 21:39 52.47327 6.38600 15668 ft 346 kts 276°
2026-05-05 21:40 52.47553 6.34616 15379 ft 345 kts 274°
2026-05-05 21:40 52.47731 6.30691 15099 ft 344 kts 274°
2026-05-05 21:40 52.47906 6.26852 14828 ft 342 kts 274°
2026-05-05 21:40 52.48088 6.22907 14549 ft 340 kts 274°
2026-05-05 21:41 52.48267 6.19050 14273 ft 339 kts 274°
2026-05-05 21:41 52.48446 6.15215 13998 ft 337 kts 274°
2026-05-05 21:41 52.48624 6.11390 13725 ft 336 kts 274°
2026-05-05 21:41 52.48804 6.07580 13452 ft 335 kts 274°
2026-05-05 21:42 52.48980 6.03826 13180 ft 334 kts 274°
2026-05-05 21:42 52.49191 6.00044 12907 ft 331 kts 275°
2026-05-05 21:42 52.49381 5.96259 12637 ft 329 kts 274°
2026-05-05 21:42 52.49552 5.92596 12374 ft 326 kts 274°
2026-05-05 21:43 52.49722 5.88898 12108 ft 325 kts 274°
2026-05-05 21:43 52.49890 5.85160 11841 ft 324 kts 274°
2026-05-05 21:43 52.50054 5.81481 11577 ft 320 kts 274°
2026-05-05 21:43 52.50209 5.77943 11321 ft 310 kts 274°
2026-05-05 21:44 52.50362 5.74459 11076 ft 303 kts 274°
2026-05-05 21:44 52.50510 5.71034 10833 ft 299 kts 274°
2026-05-05 21:44 52.50659 5.67611 10590 ft 294 kts 274°
2026-05-05 21:44 52.50802 5.64299 10357 ft 290 kts 274°
2026-05-05 21:45 52.50945 5.61009 10124 ft 286 kts 274°
2026-05-05 21:45 52.50870 5.57786 9889 ft 282 kts 258°
2026-05-05 21:45 52.50282 5.54719 9660 ft 278 kts 249°
2026-05-05 21:45 52.49552 5.51809 9431 ft 275 kts 246°
2026-05-05 21:46 52.48786 5.48996 9268 ft 271 kts 246°
2026-05-05 21:46 52.48003 5.46172 9069 ft 273 kts 245°
2026-05-05 21:46 52.47206 5.43319 8841 ft 271 kts 245°
2026-05-05 21:46 52.46398 5.40574 8617 ft 269 kts 240°
2026-05-05 21:47 52.45320 5.38079 8402 ft 267 kts 231°
2026-05-05 21:47 52.44117 5.35731 8182 ft 266 kts 230°
2026-05-05 21:47 52.42923 5.33437 7917 ft 265 kts 230°
2026-05-05 21:47 52.41725 5.31155 7622 ft 265 kts 230°
2026-05-05 21:48 52.40522 5.28871 7314 ft 265 kts 230°
2026-05-05 21:48 52.39311 5.26597 7022 ft 264 kts 230°
2026-05-05 21:48 52.38247 5.24597 6799 ft 262 kts 230°
2026-05-05 21:48 52.37078 5.22395 6582 ft 258 kts 230°
2026-05-05 21:49 52.35863 5.20143 6185 ft 261 kts 230°
2026-05-05 21:49 52.34649 5.17898 5798 ft 265 kts 230°
2026-05-05 21:49 52.33433 5.15616 5428 ft 267 kts 230°
2026-05-05 21:49 52.32227 5.13295 5109 ft 267 kts 230°
2026-05-05 21:50 52.31020 5.10995 4814 ft 267 kts 230°
2026-05-05 21:50 52.29817 5.08718 4545 ft 265 kts 230°
2026-05-05 21:50 52.28644 5.06307 4255 ft 263 kts 235°
2026-05-05 21:50 52.27645 5.03831 3977 ft 261 kts 238°
2026-05-05 21:51 52.26679 5.01366 3701 ft 260 kts 238°
2026-05-05 21:51 52.25696 4.98871 3418 ft 259 kts 238°
2026-05-05 21:51 52.24724 4.96413 3137 ft 257 kts 238°
2026-05-05 21:51 52.23751 4.93963 2854 ft 256 kts 238°
2026-05-05 21:52 52.21820 4.89122 2294 ft 253 kts 238°
2026-05-05 21:52 52.20885 4.86711 2051 ft 250 kts 238°
2026-05-05 21:52 52.19981 4.84280 1993 ft 246 kts 238°
2026-05-05 21:53 52.19088 4.81931 1989 ft 242 kts 238°
2026-05-05 21:53 52.18204 4.79599 1991 ft 241 kts 238°
2026-05-05 21:53 52.17343 4.77336 1976 ft 228 kts 238°
2026-05-05 21:53 52.16690 4.75100 1902 ft 213 kts 263°
2026-05-05 21:54 52.16965 4.72900 1891 ft 192 kts 307°
2026-05-05 21:54 52.17821 4.71359 1802 ft 177 kts 322°
2026-05-05 21:54 52.18702 4.69965 1669 ft 178 kts 322°
2026-05-05 21:54 52.19592 4.68561 1678 ft 179 kts 322°
2026-05-05 21:55 52.20484 4.67154 1686 ft 180 kts 322°
2026-05-05 21:55 52.21386 4.65736 1686 ft 181 kts 322°
2026-05-05 21:55 52.22299 4.64316 1687 ft 182 kts 322°
2026-05-05 21:55 52.23323 4.63189 1642 ft 176 kts 348°
2026-05-05 21:56 52.24475 4.63427 1504 ft 169 kts 30°
2026-05-05 21:56 52.25327 4.64689 1326 ft 162 kts 50°
2026-05-05 21:56 52.25980 4.66115 1128 ft 156 kts 54°
2026-05-05 21:56 52.26551 4.67582 919 ft 148 kts 56°
2026-05-05 21:57 52.27079 4.68962 740 ft 141 kts 56°
2026-05-05 21:57 52.27593 4.70298 541 ft 138 kts 56°
2026-05-05 21:57 52.28097 4.71610 357 ft 135 kts 56°
2026-05-05 21:57 52.28591 4.72893 196 ft 134 kts 56°
2026-05-05 21:58 52.29089 4.74187 34 ft 133 kts 56°
2026-05-05 21:58 52.29536 4.75332 13 ft 91 kts 55°
2026-05-05 21:58 52.29704 4.75748 13 ft 17 kts 58°
2026-05-05 21:58 52.29772 4.75922 13 ft 20 kts 57°
2026-05-05 21:59 52.29855 4.76144 13 ft 26 kts 59°
2026-05-05 21:59 52.29953 4.76398 13 ft 18 kts 57°
2026-05-05 21:59 52.30029 4.76528 13 ft 15 kts 21°
2026-05-05 21:59 52.30124 4.76612 13 ft 15 kts 31°
2026-05-05 22:00 52.30204 4.76689 13 ft 11 kts 31°
2026-05-05 22:00 52.30269 4.76743 13 ft 12 kts 14°
2026-05-05 22:00 52.30337 4.76688 13 ft 11 kts 294°
2026-05-05 22:00 52.30367 4.76610 13 ft 5 kts 347°
2026-05-05 22:01 52.30378 4.76615 13 ft 1 kts 28°
2026-05-05 22:01 52.30407 4.76648 13 ft 7 kts 29°
2026-05-05 22:01 52.30432 4.76671 13 ft 0 kts 29°